Tracking 30685 objects as of 18-Jun-2025
HD Live streaming from Space Station
objects crossing your sky now

STARLINK-32237

Track STARLINK-32237 now!
10-day predictions
STARLINK-32237 is classified as:


NORAD ID: 60443
Int'l Code: 2024-144U
Perigee: 481.7 km
Apogee: 483.1 km
Inclination: 53.2 °
Period: 94.1 minutes
Semi major axis: 6853 km
RCS: Unknown
Launch date: August 12, 2024
Source: United States (US)
Launch site: AIR FORCE EASTERN TEST RANGE (AFETR)
Your satellite tracking list
Your tracking list is empty




NASA's NSSDC Master Catalog

Two Line Element Set (TLE):
1 60443U 24144U   25167.86259780  .00000393  00000-0  25391-4 0  9997
2 60443  53.1604  11.6022 0001051  99.5762 260.5358 15.30191402 48619
Source of the keplerian elements: AFSPC